www.pogodaiklimat.ru

Погода и климат >> Архив погоды >> Австралия >> Западная Австралия >> Уиндем


ПОГОДА в Уиндеме

  • Прогноз погоды в Уиндеме
  • Монитор погоды в Уиндеме

АРХИВ ПОГОДЫ в Уиндеме

Время (UTC), дата Ветер
(напр.,м/с)
 
Видим.   Явления Облачность Т
(С)
Тd
(С)
f
(%)
Тe
(С)
Тes
(С)
Комфортность P
(гПа)
Po
(гПа)
Тmin
(С)
Tmax
(С)
R
(мм)
R24
(мм)
S
(см)
07 20.05 С 3 н/о н/о +35.4 +18.0 36 +39 +39 очень
душно
1011.4 1010.9
08 20.05 СЗ 5 н/о н/о +33.8 +18.7 41 +39 +39 очень
душно
1011.8 1011.3
09 20.05 СЗ 4 н/о н/о +32.0 +19.3 47 +38 +38 очень
душно
1012.4 1011.9
10 20.05 С 3 н/о н/о +30.4 +19.4 52 +36 +36 очень
душно
1012.9 1012.4
11 20.05 С 2 н/о н/о +29.9 +19.6 54 +36 +36 очень
душно
1013.7 1013.2
12 20.05 штиль 0 н/о н/о +28.2 +19.2 58 +34 +34 очень
душно
1014.2 1013.7
13 20.05 С 2 н/о н/о +27.7 +20.0 63 +34 +34 очень
душно
1014.3 1013.8 +36.4
14 20.05 С 2 н/о н/о +26.9 +19.8 65 +33 +33 очень
душно
1014.3 1013.8
15 20.05 С 2 н/о н/о +26.2 +19.8 68 +32 +32 очень
душно
1013.6 1013.1
16 20.05 С 2 н/о н/о +25.8 +19.9 70 +32 +32 очень
душно
1013.1 1012.6
17 20.05 С 2 н/о н/о +25.8 +20.1 71 +32 +32 очень
душно
1012.8 1012.3
18 20.05 штиль 0 н/о н/о +25.3 +19.7 71 +31 +31 очень
душно
1013.0 1012.5
19 20.05 штиль 0 н/о н/о +26.1 +19.7 68 +32 +32 очень
душно
1013.0 1012.5
20 20.05 С 2 н/о н/о +25.0 +19.1 70 +30 +30 душно 1013.1 1012.6
21 20.05 ЮВ 3 н/о н/о +25.1 +19.7 72 +31 +31 очень
душно
1013.5 1013.0
22 20.05 ЮВ 2 н/о н/о +24.7 +19.3 72 +30 +30 очень
душно
1014.1 1013.6
23 20.05 В 3 н/о н/о +30.0 +18.4 50 +35 +35 очень
душно
1014.6 1014.1
00 21.05 В 6 н/о н/о +31.6 +16.4 40 +35 +35 очень
душно
1015.1 1014.6
01 21.05 В 6 н/о н/о +33.6 +15.6 34 +36 +36 очень
душно
1015.3 1014.8 +24.2
02 21.05 СВ 6 н/о н/о +34.8 +15.2 31 +37 +37 очень
душно
1014.7 1014.2
03 21.05 СВ 6 н/о н/о +35.7 +14.9 29 +37 +37 душно 1014.0 1013.5
04 21.05 СВ 6 н/о н/о +36.3 +14.9 28 +38 +38 очень
душно
1012.7 1012.2
05 21.05 В 6 н/о н/о +36.5 +13.3 25 +37 +37 очень
жарко
1011.7 1011.2
06 21.05 В 5 н/о н/о +36.7 +13.5 25 +37 +37 очень
жарко
1011.2 1010.7
07 21.05 С 5 н/о н/о +34.7 +17.4 36 +38 +38 очень
душно
1011.3 1010.8
08 21.05 СВ 3 н/о н/о +35.0 +15.3 31 +37 +37 очень
душно
1011.8 1011.3
09 21.05 С 4 н/о н/о +32.3 +16.6 39 +35 +35 очень
душно
1012.7 1012.2
10 21.05 С 2 н/о н/о +30.1 +17.2 46 +34 +34 очень
душно
1013.2 1012.7
11 21.05 штиль 0 н/о н/о +27.9 +17.4 53 +32 +32 душно 1013.9 1013.4
12 21.05 В 3 н/о н/о +26.9 +18.2 59 +32 +32 очень
душно
1014.3 1013.8
13 21.05 В 4 н/о н/о +26.3 +18.4 62 +31 +31 душно 1014.4 1013.9 +37.3
14 21.05 В 3 н/о н/о +24.7 +17.9 66 +29 +29 душно 1014.6 1014.1
15 21.05 В 3 н/о н/о +24.1 +17.6 67 +28 +28 душно 1014.6 1014.1
16 21.05 В 2 н/о н/о +24.1 +17.8 68 +28 +28 душно 1014.7 1014.2
17 21.05 штиль 0 н/о н/о +23.8 +17.1 66 +28 +28 душно 1014.5 1014.0
18 21.05 В 2 н/о н/о +23.3 +17.1 68 +28 +28 душно 1014.1 1013.6
19 21.05 В 2 н/о н/о +25.0 +14.5 52 +28 +28 жарко 1014.2 1013.7
20 21.05 В 2 н/о н/о +23.0 +14.6 59 +27 +27 душно 1014.7 1014.2
21 21.05 В 2 н/о н/о +23.0 +13.8 56 +26 +26 жарко 1015.3 1014.8
22 21.05 В 3 н/о н/о +24.0 +12.6 49 +26 +26 жарко 1016.1 1015.6
23 21.05 В 5 н/о н/о +28.7 +9.4 30 +29 +29 жарко 1016.8 1016.3
00 22.05 В 9 н/о н/о +31.3 +8.3 24 +30 +30 жарко 1017.2 1016.7
01 22.05 В 9 н/о н/о +32.5 +9.3 24 +32 +32 жарко 1017.2 1016.7 +21.8
02 22.05 В 8 н/о н/о +33.9 +9.2 22 +33 +33 жарко 1016.6 1016.1
03 22.05 В 8 н/о н/о +35.1 +10.2 22 +34 +34 очень
жарко
1015.7 1015.2
04 22.05 В 7 н/о н/о +36.0 +10.2 21 +35 +35 очень
жарко
1014.6 1014.1
05 22.05 ЮВ 5 н/о н/о +35.9 +9.4 20 +35 +35 очень
жарко
1013.4 1012.9
06 22.05 ЮВ 5 н/о н/о +36.5 +9.2 19 +35 +35 очень
жарко
1012.6 1012.1
07 22.05 ЮВ 8 н/о н/о +36.4 +6.6 16 +34 +34 очень
жарко
1012.4 1011.9
08 22.05 ЮВ 8 н/о н/о +35.1 +7.2 18 +33 +33 жарко 1012.5 1012.0
09 22.05 ЮВ 6 н/о н/о +33.1 +6.4 19 +31 +31 жарко 1013.0 1012.5
10 22.05 ЮВ 3 н/о н/о +29.4 +7.9 26 +29 +29 жарко 1013.6 1013.1
11 22.05 В 2 н/о н/о +26.7 +8.2 31 +27 +27 жарко 1014.3 1013.8
12 22.05 В 2 н/о н/о +24.8 +8.3 35 +25 +25 комфорт 1014.7 1014.2
13 22.05 В 3 н/о н/о +26.1 +9.5 35 +27 +27 жарко 1015.0 1014.5 +36.9
14 22.05 В 4 н/о н/о +26.7 +8.2 31 +27 +27 жарко 1015.1 1014.6
15 22.05 В 5 н/о н/о +25.3 +7.4 32 +25 +25 комфорт 1015.5 1015.0
16 22.05 В 5 н/о н/о +25.2 +7.3 32 +25 +25 комфорт 1015.4 1014.9
17 22.05 В 4 н/о н/о +24.6 +7.3 33 +25 +25 комфорт 1015.3 1014.8
18 22.05 В 3 н/о н/о +24.1 +7.7 35 +24 +24 комфорт 1014.9 1014.4
19 22.05 В 3 н/о н/о +24.3 +7.9 35 +25 +25 комфорт 1014.8 1014.3
20 22.05 В 4 н/о н/о +24.4 +7.5 34 +25 +25 комфорт 1015.1 1014.6
21 22.05 В 4 н/о н/о +22.8 +8.1 39 +24 +24 комфорт 1015.8 1015.3
22 22.05 В 4 н/о н/о +23.1 +8.4 39 +24 +24 комфорт 1016.4 1015.9
23 22.05 В 6 н/о н/о +27.6 +9.0 31 +28 +28 жарко 1016.9 1016.4
00 23.05 В 10 н/о н/о +29.8 +9.3 28 +29 +29 жарко 1017.2 1016.7
01 23.05 В 10 н/о н/о +31.2 +9.4 26 +31 +31 жарко 1017.1 1016.6 +22.9
02 23.05 В 8 н/о н/о +32.9 +9.7 24 +32 +32 жарко 1016.3 1015.8
03 23.05 В 8 н/о н/о +33.4 +8.8 22 +32 +32 жарко 1015.3 1014.8
04 23.05 В 7 н/о н/о +34.0 +8.6 21 +33 +33 жарко 1014.6 1014.1
05 23.05 В 4 н/о н/о +34.2 +8.0 20 +33 +33 жарко 1013.5 1013.0
06 23.05 В 5 н/о н/о +34.6 +8.4 20 +33 +33 жарко 1013.0 1012.5
07 23.05 ЮВ 6 н/о н/о +34.5 +8.3 20 +33 +33 жарко 1012.7 1012.2
08 23.05 ЮВ 6 н/о н/о +33.6 +8.3 21 +32 +32 жарко 1012.9 1012.4
09 23.05 ЮВ 5 н/о н/о +31.6 +8.6 24 +31 +31 жарко 1013.4 1012.9
10 23.05 В 3 н/о н/о +28.5 +9.2 30 +28 +28 жарко 1013.9 1013.4
11 23.05 СВ 4 н/о н/о +28.2 +9.5 31 +28 +28 жарко 1014.6 1014.1
12 23.05 СВ 2 н/о н/о +26.3 +10.5 37 +27 +27 жарко 1014.9 1014.4
13 23.05 В 2 н/о н/о +25.3 +10.4 39 +26 +26 жарко 1015.1 1014.6 +35.8
14 23.05 штиль 0 н/о н/о +23.0 +10.8 46 +25 +25 комфорт 1015.2 1014.7
15 23.05 СВ 1 н/о н/о +24.6 +14.1 52 +27 +27 жарко 1014.8 1014.3
16 23.05 С 2 н/о н/о +24.9 +14.1 51 +27 +27 жарко 1014.5 1014.0
17 23.05 С 2 н/о н/о +23.9 +14.0 54 +26 +26 жарко 1014.2 1013.7
18 23.05 Ю 2 н/о н/о +25.3 +14.7 52 +28 +28 жарко 1013.8 1013.3
19 23.05 ЮЗ 1 н/о н/о +24.5 +13.7 51 +27 +27 жарко 1013.7 1013.2
20 23.05 штиль 0 н/о н/о +21.7 +12.5 56 +24 +24 комфорт 1013.8 1013.3
21 23.05 штиль 0 н/о н/о +21.1 +12.0 56 +23 +23 комфорт 1014.1 1013.6
22 23.05 В 3 н/о н/о +23.3 +11.4 47 +26 +26 жарко 1014.7 1014.2
23 23.05 В 4 н/о н/о +28.2 +10.4 33 +29 +29 жарко 1015.3 1014.8
00 24.05 В 7 н/о н/о +31.1 +9.3 26 +30 +30 жарко 1015.7 1015.2
01 24.05 В 9 н/о н/о +32.0 +8.3 23 +31 +31 жарко 1015.8 1015.3 +20.2
02 24.05 В 8 н/о н/о +33.2 +8.6 22 +32 +32 жарко 1015.3 1014.8
03 24.05 В 7 н/о н/о +34.3 +8.1 20 +33 +33 жарко 1014.2 1013.7
04 24.05 ЮВ 8 н/о н/о +34.8 +7.8 19 +33 +33 жарко 1013.1 1012.6
05 24.05 В 5 н/о н/о +34.3 +6.6 18 +32 +32 жарко 1011.9 1011.4
06 24.05 В 6 н/о н/о +34.5 +6.7 18 +32 +32 жарко 1011.2 1010.7
07 24.05 В 5 н/о н/о +34.3 +6.6 18 +32 +32 жарко 1011.0 1010.5
08 24.05 ЮВ 5 н/о н/о +33.7 +6.9 19 +32 +32 жарко 1011.3 1010.8
09 24.05 В 3 н/о н/о +30.9 +6.7 22 +29 +29 жарко 1012.0 1011.5
10 24.05 ЮВ 3 н/о н/о +27.7 +8.1 29 +27 +27 жарко 1012.7 1012.2
11 24.05 В 3 н/о н/о +27.0 +8.0 30 +27 +27 жарко 1013.6 1013.1
12 24.05 В 2 н/о н/о +26.1 +8.6 33 +26 +26 жарко 1014.3 1013.8
13 24.05 штиль 0 н/о н/о +22.8 +9.2 42 +24 +24 комфорт 1014.5 1014.0 +35.7
14 24.05 штиль 0 н/о н/о +23.1 +9.8 43 +25 +25 комфорт 1014.6 1014.1
15 24.05 штиль 0 н/о н/о +21.3 +9.5 47 +23 +23 комфорт 1014.5 1014.0
16 24.05 Ю 4 н/о н/о +21.7 +12.8 57 +24 +24 комфорт 1014.2 1013.7
17 24.05 Ю 2 н/о н/о +20.3 +10.1 52 +22 +22 комфорт 1014.1 1013.6
18 24.05 Ю 2 н/о н/о +20.7 +11.1 54 +23 +23 комфорт 1013.4 1012.9
19 24.05 З 2 н/о н/о +20.2 +10.0 52 +22 +22 комфорт 1013.3 1012.8
20 24.05 З 2 н/о н/о +19.2 +9.1 52 +21 +21 комфорт 1013.5 1013.0
21 24.05 штиль 0 н/о н/о +18.4 +10.3 59 +19 +19 1013.9 1013.4
22 24.05 штиль 0 н/о н/о +18.4 +10.0 58 +19 +19 1014.6 1014.1
23 24.05 штиль 0 н/о н/о +25.0 +9.3 37 +26 +26 жарко 1015.2 1014.7
00 25.05 В 3 н/о н/о +28.7 +7.3 26 +28 +28 жарко 1015.3 1014.8
01 25.05 ЮВ 6 н/о н/о +30.9 +7.4 23 +30 +30 жарко 1015.4 1014.9 +17.9
02 25.05 ЮВ 7 н/о н/о +32.8 +7.6 21 +31 +31 жарко 1014.7 1014.2
03 25.05 В 6 н/о н/о +33.8 +7.0 19 +32 +32 жарко 1013.5 1013.0
04 25.05 Ю 3 н/о н/о +34.1 +6.4 18 +32 +32 жарко 1012.4 1011.9
05 25.05 В 4 н/о н/о +34.2 +6.5 18 +32 +32 жарко 1011.4 1010.9
06 25.05 Ю 5 н/о н/о +34.4 +6.7 18 +32 +32 жарко 1010.8 1010.3
07 25.05 В 5 н/о н/о +34.2 +6.5 18 +32 +32 жарко 1010.9 1010.4
08 25.05 Ю 3 н/о н/о +33.8 +7.0 19 +32 +32 жарко 1011.0 1010.5
09 25.05 Ю 4 н/о н/о +31.3 +6.4 21 +30 +30 жарко 1011.7 1011.2
10 25.05 Ю 4 н/о н/о +29.6 +6.9 24 +28 +28 жарко 1012.3 1011.8
11 25.05 СВ 3 н/о н/о +28.3 +7.5 27 +28 +28 жарко 1013.0 1012.5
12 25.05 СВ 2 н/о н/о +25.8 +7.9 32 +26 +26 жарко 1013.6 1013.1
13 25.05 СВ 2 н/о н/о +24.8 +11.4 43 +26 +26 жарко 1013.9 1013.4 +35.7
14 25.05 СВ 2 н/о н/о +22.6 +13.7 57 +26 +26 жарко 1013.7 1013.2
15 25.05 СВ 2 н/о н/о +21.6 +11.9 54 +24 +24 комфорт 1013.3 1012.8
16 25.05 СВ 3 н/о н/о +21.2 +12.6 58 +23 +23 комфорт 1013.3 1012.8
17 25.05 СВ 2 н/о н/о +20.1 +11.1 56 +22 +22 комфорт 1013.0 1012.5
18 25.05 штиль 0 н/о н/о +20.3 +11.2 56 +22 +22 комфорт 1012.9 1012.4
19 25.05 штиль 0 н/о н/о +20.0 +11.8 59 +21 +21 комфорт 1013.1 1012.6
20 25.05 СВ 1 н/о н/о +19.2 +12.7 66 +22 +22 комфорт 1013.1 1012.6
21 25.05 СВ 2 н/о н/о +19.5 +12.0 62 +21 +21 комфорт 1013.5 1013.0
22 25.05 штиль 0 н/о н/о +20.7 +12.1 58 +23 +23 комфорт 1014.0 1013.5
23 25.05 штиль 0 н/о н/о +24.3 +10.9 43 +26 +26 жарко 1014.8 1014.3
00 26.05 В 6 н/о н/о +30.7 +7.8 24 +30 +30 жарко 1014.9 1014.4
01 26.05 В 9 н/о н/о +32.7 +8.9 23 +32 +32 жарко 1014.8 1014.3 +18.6
02 26.05 В 8 н/о н/о +33.2 +8.6 22 +32 +32 жарко 1014.1 1013.6
03 26.05 В 8 н/о н/о +33.5 +8.2 21 +32 +32 жарко 1012.8 1012.3
04 26.05 В 7 н/о н/о +34.8 +8.5 20 +33 +33 жарко 1011.5 1011.0
05 26.05 СВ 6 н/о н/о +34.8 +8.5 20 +33 +33 жарко 1010.6 1010.1
06 26.05 СВ 5 н/о н/о +35.2 +8.1 19 +33 +33 жарко 1010.3 1009.8
07 26.05 В 5 н/о н/о +34.7 +7.7 19 +33 +33 жарко 1010.5 1010.0
08 26.05 В 4 н/о н/о +34.3 +8.1 20 +33 +33 жарко 1010.9 1010.4
09 26.05 ЮВ 4 н/о н/о +31.6 +8.0 23 +30 +30 жарко 1011.7 1011.2
10 26.05 В 3 н/о н/о +28.5 +8.2 28 +28 +28 жарко 1012.5 1012.0
11 26.05 В 3 н/о н/о +27.7 +8.1 29 +27 +27 жарко 1013.2 1012.7
12 26.05 В 2 н/о н/о +26.8 +8.3 31 +27 +27 жарко 1013.8 1013.3
13 26.05 штиль 0 н/о н/о +24.8 +8.3 35 +25 +25 комфорт 1013.9 1013.4 +36.1
14 26.05 штиль 0 н/о н/о +24.2 +8.2 36 +25 +25 комфорт 1013.8 1013.3
15 26.05 В 2 н/о н/о +21.4 +9.0 45 +23 +23 комфорт 1013.5 1013.0
16 26.05 штиль 0 н/о н/о +21.1 +9.7 48 +22 +22 комфорт 1013.3 1012.8
17 26.05 В 2 н/о н/о +21.1 +10.0 49 +23 +23 комфорт 1013.3 1012.8
18 26.05 В 2 н/о н/о +21.6 +10.1 48 +23 +23 комфорт 1013.2 1012.7
19 26.05 В 3 н/о н/о +21.8 +9.3 45 +23 +23 комфорт 1013.1 1012.6
20 26.05 В 3 н/о н/о +22.5 +7.5 38 +23 +23 комфорт 1013.6 1013.1
21 26.05 В 2 н/о н/о +22.4 +5.4 33 +23 +23 комфорт 1013.9 1013.4
22 26.05 В 2 н/о н/о +22.8 +4.3 30 +23 +23 комфорт 1014.7 1014.2
23 26.05 В 3 н/о н/о +27.0 +5.3 25 +26 +26 жарко 1015.3 1014.8
00 27.05 ЮВ 7 н/о н/о +29.9 +3.8 19 +28 +28 жарко 1015.5 1015.0
01 27.05 В 9 н/о н/о +31.7 +3.7 17 +29 +29 жарко 1015.3 1014.8 +19.7
02 27.05 В 9 н/о н/о +32.5 +3.5 16 +30 +30 жарко 1014.7 1014.2
03 27.05 В 7 н/о н/о +33.0 +3.9 16 +30 +30 жарко 1014.1 1013.6
04 27.05 ЮВ 7 н/о н/о +33.8 +4.5 16 +31 +31 жарко 1013.0 1012.5
05 27.05 ЮВ 5 н/о н/о +34.2 +3.9 15 +31 +31 жарко 1012.3 1011.8
06 27.05 ЮВ 7 н/о н/о +34.2 +2.9 14 +31 +31 жарко 1011.8 1011.3

 

Местоположение метеостанции Уиндем (Западная Австралия, Австралия): широта -15.50 долгота 128.15 высота над уровнем моря 4 м.

В архиве по умолчанию представлена погода в Уиндеме за последнюю неделю. Архивные данные за месяц целиком и за предыдущие месяцы, начиная с января 2011 года, Вы можете получить, выбрав интересующий диапазон дат из раскрывающегося списка и нажав кнопку "Ввод!".


*Определитесь, кто Вы:
робот инопланетянин человек

Внимание! Время в таблицах - всемирное. Для получения местного времени необходимо прибавить поправку, которая равна 8 ч.

Смотрите также архив погоды в соседних городах и на ближайших метеорологических станциях:

Погода в Кунунарре (Западная Австралия, Австралия) (68 км)
Погода в Аэропорту Аргайл (Западная Австралия, Австралия) (130 км)
Погода в Порт Китс (Северная территория, Австралия) (203 км)
Погода в Калумбуру (Западная Австралия, Австралия) (209 км)
Погода в Трускотте (Западная Австралия, Австралия) (247 км)
Погода на Острове Троутон (Западная Австралия, Австралия) (290 км)
Погода в Манбуллу Ксиро (Северная территория, Австралия) (291 км)
Погода в Холс Крик (Западная Австралия, Австралия) (308 км)
Погода в Виктория-Ривер (Северная территория, Австралия) (323 км)
Погода на Маяке Кейп-Дон (Северная территория, Австралия) (375 км)

Пояснения к столбцам:

Ветер - указаны скорость ветра в м/с - средняя за 10 мин, порывы в срок и между сроками (в фигурных скобках) и направление, откуда дует ветер: С - северный, СВ - северо-восточный, В - восточный, ЮВ - юго-восточный, Ю - южный, ЮЗ - юго-западный, З - западный, СЗ - северо-западный.
Видимость - горизонтальная дальность видимости в метрах или километрах. При видимости от 1 до 10 км при отсутствии осадков обычно наблюдается дымка, при ухудшении видимости до 1 км и менее - туман. В сухую погоду видимость может ухудшаться дымом, пылью или мглою.
Явления - указаны атмосферные явления, наблюдавшиеся в срок или в последний час перед сроком; фигурными скобками обозначены явления, наблюдавшиеся между сроками (за 1-3 часа до срока); квадратными скобками обозначены град или гололедные отложения с указанием их диаметра в мм.
Облачность - указаны через наклонную черту общая и нижняя облачность в баллах и высота нижней границы облаков в метрах; квадратными скобками обозначены формы облаков: Ci - перистые, Cs - перисто-слоистые, Cc - перисто-кучевые, Ac - высококучевые, As - высокослоистые, Sc - слоисто-кучевые, Ns - слоисто-дождевые, Cu - кучевые, Cb - кучево-дождевые. Подробнее классификацию облаков см. в Атласе облаков (PDF).
T - Температура воздуха - температура, измеренная на высоте 2 м над землей.
Td - Температура точки росы - температура, при понижении до которой содержащийся в воздухе водяной пар достигнет насыщения.
f - Относительная влажность воздуха - влажноcть воздуха, измеренная на высоте 2 м над землей.
Te - Эффективная температура - температура, которую ощущает одетый по сезону человек в тени. Характеристика душности погоды. При расчете учитывается влияние влажности воздуха и скорости ветра на теплоощущения человека.
Tes - Эффективная температура на солнце - температура, которую ощущает человек, с поправкой на солнечный нагрев. Характеристика знойности погоды. Зависит от высоты солнца над горизонтом, облачности и скорости ветра. Ночью, в пасмурную погоду, а также при ветре 12 м/с и более поправка равна нулю.
P - Атмосферное давление - приведенное к уровню моря атмосферное давление.
Po - Атмосферное давление - измеренное на уровне метеостанции атмосферное давление.
Tmin - Минимальная температура - минимум температуры воздуха на высоте 2 м над землей.
Tmax - Максимальная температура - максимум температуры воздуха на высоте 2 м над землей.
R - Количество осадков - Количество выпавших осадков за период времени, мм. При наведении курсора мыши на число - период времени, за который выпало указанное количество осадков.
R24 - Количество осадков - Количество выпавших осадков за 24 часа, мм.
S - Снежный покров - Высота снежного покрова, см. При наведении курсора мыши на число - состояние снежного покрова и степень покрытия местности в баллах.